Location: Kampong Paya Jaras Dalam
(3.1833°N, 101.5500°E)
Time: 04:48:47
(UTC+00:00)

CZ-3 R/B - Pass Details

Date: 15 May 2026
Orbit: 564 x 9992 km, 28.2° (Epoch: 2 June)

Event Time Altitude Azimuth Distance (km) Brightness Sun altitude
Rises 22:22:47 0° 298° (WNW) 9,315 6.1 -10.1°
Reaches altitude 10° 22:31:32 10° 298° (WNW) 6,625 5.4 -8.1°
Maximum altitude 22:47:10 77° 213° (SSW) 1,354 2.2 -4.4°
Drops below altitude 10° 22:52:23 10° 127° (SE) 2,399 4.1 -3.2°
Sets 22:54:04 0° 125° (SE) 3,084 4.7 -2.8°
